[[{"header":{"parameterUnit":"m.s-1","parameterCategory":1,"la1":30.2991,"la2":30.254,"lo1":-89.0895,"lo2":-89.0444,"dy":0.0017,"dx":0.0017,"nx":28,"ny":28,"refTime":"2025-12-31T03:00:00:Z","depth":0,"parameterNumber":2,"parameterNumberName":"U-component_of_WINDS"},"data":[0,0,0,0,0,0,0,0,0,0,0,0,0,0,0,0,0,0,0,0,0,0,0,0,0,0,0,0,0,0,0,0,0,0,0,0,0,0,0,0,0,0,0,0,0,0,0,0,0,0,0,0,0,0,0,0,0,0,2.7238,2.7239,0,2.7353,2.7354,2.7355,2.7341,2.7339,2.7338,2.7336,2.7459,2.7464,2.7469,0,0,0,0,0,0,0,0,0,0,0,0,0,2.7013,2.7017,2.7238,2.724,2.7241,2.7353,2.7354,2.7356,2.7342,2.7339,2.7337,2.7335,2.7457,2.7463,2.7469,0,0,0,0,0,0,0,0,0,0,0,0,0,2.7118,2.7019,2.7238,2.7247,2.7249,2.7352,2.7354,2.7356,2.7342,2.7339,2.7337,2.7334,2.7455,2.7463,2.747,2.7573,0,0,2.7493,2.7496,0,0,0,0,0,0,0,0,2.7112,2.7126,2.7244,2.7247,2.7249,2.733,2.732,2.7429,2.7343,2.7307,2.7336,2.7333,2.7419,2.7429,2.7457,2.7579,2.7584,2.7494,2.7498,2.7501,2.7504,0,0,0,0,0,0,0,2.7105,2.7121,2.7284,2.7246,2.7249,2.7248,2.726,2.7341,2.7377,2.731,2.7309,2.7323,2.7419,2.745,2.746,2.7586,2.7493,2.75,2.7505,2.7508,2.78,2.7803,0,0,0,0,0,0,2.7094,2.7115,2.728,2.7287,2.7172,2.7254,2.7267,2.7307,2.7376,2.7384,2.7325,2.7322,2.7438,2.7451,2.7464,2.759,2.7501,2.7508,2.7513,2.7797,2.7801,2.7804,0,0,0,0,0,0,2.7089,2.7109,2.7275,2.7201,2.7222,2.7261,2.7306,2.7311,2.7341,2.7388,2.7395,2.7349,2.7436,2.7453,2.7546,2.7594,2.7512,2.7519,2.7793,2.7798,2.7803,2.7843,0,0,0,0,0,0,2.7083,2.7107,2.7145,2.7202,2.7226,2.7354,2.7308,2.7315,2.7353,2.735,2.7412,2.7419,2.7435,2.7535,2.7553,2.7603,2.7525,2.7789,2.7795,2.7801,2.7837,2.7848,2.7858,0,0,0,0,0,2.7075,2.7153,2.7147,2.7167,2.7274,2.7356,2.737,2.7386,2.7357,2.7396,2.7427,2.7417,2.7586,2.7544,2.7565,2.7618,2.7786,2.7794,2.7801,2.7833,2.7846,2.7857,0,0,0,0,0,0,2.7102,2.716,2.7155,2.7252,2.7299,2.7354,2.7404,2.7399,2.7457,2.7451,2.747,2.7484,2.7578,2.7607,2.756,2.7722,2.7682,2.7694,2.7699,2.7713,2.7723,2.7714,2.7531,0,0,0,0,0,2.7119,2.7179,2.7228,2.7309,2.7333,2.7364,2.7401,2.7409,2.7459,2.7479,2.7516,2.7567,2.7632,2.7674,2.7736,2.7841,2.7856,2.7888,2.7898,2.7907,2.7917,2.7977,2.7992,2.7828,2.7828,2.7828,0,0,2.7155,2.7194,2.7232,2.7316,2.7353,2.7417,2.7381,2.745,2.7499,2.749,2.758,2.7609,2.7667,2.7767,2.7813,2.7795,2.7966,2.7916,2.7922,2.7928,2.7986,2.8002,2.8015,2.7833,2.7832,2.7832,0,0,2.7254,2.7289,2.7361,2.74,2.7456,2.7477,2.7495,2.755,2.7569,2.7659,2.7654,2.7714,2.7824,2.7866,2.7901,2.8018,2.8013,2.8038,2.8092,2.8151,2.8164,2.8175,2.8218,2.8233,2.8048,2.8048,2.8049,0,2.7292,2.7387,2.74,2.747,2.7508,2.7502,2.7577,2.7614,2.7689,2.7717,2.7694,2.7834,2.7872,2.7983,2.8012,2.804,2.8063,2.8031,2.816,2.8172,2.8183,2.8224,2.824,2.8051,2.8051,2.8051,2.805,0,2.7432,2.7498,2.755,2.7621,2.7665,2.7737,2.7764,2.7807,2.7812,2.7836,2.7929,2.7975,2.8047,2.8074,2.808,2.8187,2.8173,2.8156,2.8116,2.8201,2.8241,2.8256,2.8055,2.8054,2.8053,2.8053,0,0,2.755,2.7628,2.7647,2.768,2.7743,2.7795,2.7868,2.7937,2.7975,2.8028,2.8091,2.8185,2.8169,2.821,2.8221,2.8272,2.8364,2.8248,2.825,2.8269,2.8486,2.8499,2.8517,2.836,2.8363,2.8365,2.8482,0,2.7655,2.7782,2.7798,2.7912,2.7974,2.7971,2.8035,2.8082,2.8107,2.8165,2.8193,2.826,2.8234,2.8259,2.8309,2.8341,2.8408,2.8333,2.8421,2.8424,2.8407,2.8538,2.8552,2.8659,2.8497,2.85,2.8502,0,2.7795,2.785,2.797,2.8026,2.8053,2.811,2.8176,2.8231,2.8285,2.83,2.8346,2.835,2.8429,2.8386,2.8495,2.8444,2.8482,2.8503,2.8508,2.8517,2.8468,2.8551,2.8693,2.871,2.8526,2.8524,2.8522,0,2.787,2.7975,2.8061,2.8089,2.8156,2.8197,2.8227,2.8278,2.8319,2.8377,2.8405,2.8472,2.8508,2.8561,2.8585,2.8551,2.8694,2.8652,2.871,2.8709,2.874,2.8738,2.8891,2.8763,2.8763,2.8762,2.8762,0,2.7987,2.8061,2.8095,2.8148,2.8232,2.825,2.8333,2.8362,2.8408,2.8468,2.847,2.8527,2.8554,2.8616,2.8635,2.8724,2.8741,2.8756,2.8761,2.8756,2.8754,2.8781,2.8774,2.8767,2.8766,2.8765,2.8764,0,2.8085,2.811,2.8204,2.826,2.8276,2.8335,2.8384,2.8437,2.8462,2.8538,2.8557,2.8597,2.867,2.8698,2.8788,2.8801,2.8904,2.8902,2.8885,2.8886,2.8942,2.8937,2.9118,2.9143,2.8998,2.9,2.9001,0,2.8157,2.8214,2.8276,2.8316,2.8347,2.8411,2.8453,2.8474,2.8518,2.8585,2.863,2.8703,2.8761,2.8879,2.8917,2.8986,2.8987,2.9046,2.8997,2.8992,2.8989,2.8985,2.8992,2.9054,2.9056,2.9057,2.9058,0,2.8284,2.8294,2.8353,2.8418,2.8468,2.852,2.8571,2.8604,2.8633,2.8683,2.8757,2.8803,2.8894,2.8967,2.9038,2.9072,2.9071,2.9073,2.909,2.9086,2.9074,2.9083,2.891,2.9069,2.9068,2.9067,2.9066,2.9066,2.8372,2.8423,2.8475,2.8541,2.8582,2.863,2.8682,2.8714,2.8775,2.885,2.8859,2.8939,2.8995,2.909,2.9127,2.9191,2.9176,2.9201,2.9207,2.9213,2.9217,2.9064,2.9205,2.9204,2.9204,2.9204,2.9204,0,2.8499,2.8533,2.8594,2.8665,2.8718,2.8711,2.8768,2.8813,2.8883,2.8934,2.8992,2.9078,2.9149,2.9193,2.9265,2.9308,2.931,2.9327,2.9324,2.9332,2.9226,2.9204,2.9324,2.9324,2.9324,2.9324,2.9324,2.9324,2.8572,2.8658,2.8675,2.8782,2.8816,2.8893,2.8926,2.8971,2.9012,2.9107,2.9166,2.9194,2.9243,2.9319,2.9385,2.9396,2.9423,2.9441,2.9451,2.9352,2.9339,2.9327,2.9307,2.9447,2.9447,2.9552,2.9553,2.9554]},{"header":{"parameterUnit":"m.s-1","parameterCategory":1,"la1":30.2991,"la2":30.254,"lo1":-89.0895,"lo2":-89.0444,"dy":0.0017,"dx":0.0017,"nx":28,"ny":28,"refTime":"2025-12-31T03:00:00:Z","depth":0,"parameterNumber":3,"parameterNumberName":"V-component_of_WINDS"},"data":[0,0,0,0,0,0,0,0,0,0,0,0,0,0,0,0,0,0,0,0,0,0,0,0,0,0,0,0,0,0,0,0,0,0,0,0,0,0,0,0,0,0,0,0,0,0,0,0,0,0,0,0,0,0,0,0,0,0,2.3736,2.3736,0,2.3769,2.3769,2.3769,2.3775,2.3774,2.3774,2.3774,2.3805,2.3806,2.3807,0,0,0,0,0,0,0,0,0,0,0,0,0,2.3674,2.3675,2.3736,2.3736,2.3736,2.3769,2.3769,2.3769,2.3775,2.3774,2.3774,2.3774,2.3805,2.3806,2.3807,0,0,0,0,0,0,0,0,0,0,0,0,0,2.3703,2.3675,2.3736,2.3743,2.3744,2.3768,2.3769,2.377,2.3775,2.3774,2.3774,2.3774,2.3804,2.3806,2.3807,2.3826,0,0,2.3812,2.3813,0,0,0,0,0,0,0,0,2.3701,2.3705,2.3742,2.3743,2.3744,2.3767,2.3759,2.3788,2.3775,2.3763,2.3774,2.3773,2.3792,2.3795,2.3802,2.3827,2.3829,2.3812,2.3813,2.3814,2.3815,0,0,0,0,0,0,0,2.3699,2.3704,2.3749,2.3742,2.3743,2.3744,2.3747,2.3764,2.378,2.3764,2.3764,2.3768,2.3793,2.38,2.3803,2.3829,2.3812,2.3814,2.3815,2.3815,2.3869,2.387,0,0,0,0,0,0,2.3696,2.3702,2.3748,2.375,2.3721,2.3745,2.3749,2.376,2.3779,2.3782,2.3769,2.3769,2.3798,2.3801,2.3804,2.3826,2.3814,2.3816,2.3817,2.3869,2.3869,2.387,0,0,0,0,0,0,2.3695,2.37,2.3746,2.3726,2.3732,2.3747,2.3759,2.3761,2.3768,2.3783,2.3786,2.3774,2.3798,2.3802,2.382,2.3827,2.3816,2.3818,2.3868,2.3869,2.387,2.387,0,0,0,0,0,0,2.3693,2.37,2.3708,2.3726,2.3733,2.3763,2.3759,2.3762,2.3772,2.3772,2.3789,2.3791,2.3798,2.3818,2.3822,2.3829,2.3819,2.3868,2.3869,2.3869,2.387,2.3871,2.3872,0,0,0,0,0,2.3691,2.3707,2.3708,2.3714,2.3744,2.3763,2.3767,2.3775,2.3772,2.378,2.3789,2.379,2.3826,2.382,2.3824,2.3832,2.3867,2.3868,2.3869,2.3869,2.3871,2.3872,0,0,0,0,0,0,2.3688,2.3709,2.3711,2.3734,2.3747,2.3764,2.3774,2.3777,2.3791,2.379,2.3799,2.3802,2.382,2.3828,2.3821,2.385,2.3846,2.3848,2.3845,2.3846,2.3847,2.3845,2.382,0,0,0,0,0,2.369,2.3706,2.3723,2.3741,2.3747,2.376,2.3769,2.3774,2.3787,2.3793,2.3803,2.3815,2.3829,2.3838,2.3852,2.3871,2.3874,2.3879,2.388,2.3881,2.3882,2.3891,2.3893,2.3873,2.3873,2.3873,0,0,2.3695,2.3708,2.3717,2.3741,2.3751,2.3766,2.3764,2.378,2.379,2.3795,2.3813,2.3821,2.3835,2.3854,2.3862,2.3861,2.3888,2.3882,2.3882,2.3883,2.3893,2.3895,2.3896,2.3874,2.3874,2.3874,0,0,2.371,2.3722,2.3738,2.3749,2.3765,2.3773,2.3777,2.3794,2.3799,2.3818,2.3821,2.3833,2.3857,2.3866,2.3874,2.3892,2.3893,2.3896,2.3901,2.391,2.3912,2.3913,2.3919,2.3921,2.3897,2.3897,2.3897,0,2.3713,2.3736,2.3745,2.3761,2.377,2.3775,2.379,2.38,2.382,2.3826,2.3824,2.3853,2.3863,2.3883,2.3887,2.3894,2.3897,2.3894,2.3911,2.3913,2.3914,2.3919,2.3921,2.3897,2.3897,2.3897,2.3897,0,2.3738,2.3754,2.3765,2.3784,2.3795,2.381,2.382,2.383,2.3833,2.3841,2.3859,2.3871,2.3886,2.3891,2.3895,2.3912,2.391,2.391,2.3906,2.3916,2.3921,2.3923,2.3898,2.3897,2.3897,2.3897,0,0,2.3753,2.3777,2.3781,2.3789,2.3807,2.3819,2.3833,2.3849,2.3856,2.3869,2.3881,2.39,2.39,2.3909,2.3913,2.3922,2.3933,2.392,2.392,2.3921,2.3951,2.3951,2.3953,2.3934,2.3935,2.3935,2.3949,0,2.377,2.3797,2.3806,2.3828,2.3842,2.3846,2.3859,2.387,2.3877,2.3889,2.3897,2.391,2.3909,2.3914,2.3922,2.393,2.3939,2.3929,2.3944,2.3944,2.394,2.3956,2.3956,2.3969,2.3951,2.3952,2.3952,0,2.3793,2.3807,2.3831,2.3846,2.3852,2.3863,2.3878,2.389,2.3902,2.3907,2.3916,2.392,2.3934,2.3929,2.3948,2.3941,2.3947,2.3952,2.3953,2.3954,2.3948,2.3957,2.3973,2.3975,2.3955,2.3955,2.3955,0,2.3801,2.3825,2.3842,2.3849,2.3868,2.3875,2.3883,2.3895,2.3904,2.3916,2.3921,2.3935,2.3942,2.3951,2.3958,2.3954,2.3976,2.3972,2.3979,2.3979,2.3983,2.3983,2.4,2.3988,2.3988,2.3988,2.3988,0,2.3818,2.3832,2.3846,2.3856,2.3872,2.388,2.3895,2.3903,2.3913,2.3924,2.3929,2.3939,2.3948,2.3958,2.3964,2.3978,2.3981,2.3984,2.3985,2.3983,2.3983,2.3987,2.3986,2.3989,2.3988,2.3988,2.3988,0,2.3829,2.3839,2.3858,2.3873,2.3877,2.3888,2.3901,2.391,2.3917,2.3931,2.3935,2.3945,2.3958,2.3966,2.3983,2.3986,2.4001,2.4002,2.3997,2.3997,2.4004,2.4003,2.4024,2.4027,2.4014,2.4014,2.4014,0,2.3839,2.385,2.3867,2.3875,2.3883,2.3896,2.3905,2.3913,2.3921,2.3936,2.3943,2.3957,2.3968,2.3988,2.3997,2.4009,2.401,2.4016,2.4011,2.4009,2.4009,2.4008,2.4008,2.4017,2.4017,2.4017,2.4017,0,2.3856,2.386,2.3873,2.3887,2.3897,2.3909,2.392,2.3926,2.3936,2.3945,2.3959,2.3967,2.3984,2.3996,2.4009,2.4016,2.4018,2.4019,2.4021,2.4019,2.4015,2.4017,2.3999,2.4018,2.4018,2.4018,2.4018,2.4018,2.3866,2.3876,2.3889,2.3903,2.3912,2.3922,2.3932,2.394,2.3952,2.3966,2.397,2.3984,2.3995,2.4012,2.4019,2.4029,2.4028,2.4031,2.4032,2.4032,2.4032,2.4014,2.4031,2.4031,2.4031,2.4031,2.4031,0,2.3883,2.3891,2.3904,2.3919,2.393,2.3931,2.3944,2.3952,2.3964,2.3975,2.3985,2.4,2.4012,2.4021,2.4034,2.404,2.4041,2.4043,2.4042,2.4043,2.4033,2.4029,2.4041,2.4041,2.4041,2.4041,2.4041,2.4041,2.3892,2.3908,2.3914,2.3933,2.3942,2.3956,2.3962,2.3971,2.3979,2.3996,2.4006,2.4012,2.4022,2.4035,2.4045,2.4048,2.4051,2.4053,2.4055,2.4045,2.4044,2.4043,2.404,2.4054,2.4054,2.4065,2.4065,2.4065]}]]